Flag for Canada Weather past 2 weeks in Coral Harbour, Nunavut, Canada

Now
46 °F

Passing clouds.


Feels Like: 38 °F
Forecast: 42 / 56 °F
Wind: 23 mph from East

Location: Coral Harbour

Current Time: Aug 4, 2015 at 12:24:44 AM

Latest Report: Aug 4, 2015 at 12:00 AM


Visibility: 15 mi

Pressure: 30.04 "Hg

Humidity: 87%

Dew point: 43 °F

Location of Coral HarbourLocation

Historic Weather in Coral Harbour — Graph

°F

Coral Harbour temperature yesterday

Maximum temperature yesterday: 50 °F (at 3:00 PM)
Minimum temperature yesterday: 41 °F (at 7:00 AM)
Average temperature yesterday: 45 °F

Past Weeks' High & Low Weather Summary

 TemperatureHumidityPressure
High64 °F (Jul 26, 2:00 PM)100% (Jul 25, 7:00 AM)30.06 "Hg (Jul 25, 7:00 AM)
Low39 °F (Jul 24, 5:00 AM)48% (Jul 20, 3:00 PM)29.31 "Hg (Jul 31, 3:00 AM)
Average50 °F81%29.77 "Hg
* Reported Jul 19 11:00 PM — Aug 3 11:00 PM, Coral Harbour, Weather by CustomWeather, © 2015

Note: Actual official high and low records may vary slightly from our data, if they occured in-between our weather recording intervals... More about our weather records

Advertising

Coral Harbour weather history for previous 24 hours

 ConditionsComfort  
Time TempWeatherWind HumidityBarometerVisibility
11:00 PM
Mon, Aug 3
46 °FPassing clouds.23 mph82%30.04 "Hg15 mi
10:00 PM45 °FPassing clouds.23 mph87%30.05 "Hg15 mi
9:00 PM45 °FPassing clouds.23 mph93%30.06 "Hg15 mi
8:00 PM46 °FScattered clouds.23 mph87%30.04 "Hg15 mi
7:00 PM48 °FPassing clouds.23 mph82%30.04 "Hg15 mi
6:00 PM48 °FScattered clouds.29 mph82%30.05 "Hg15 mi
5:00 PM46 °FPartly sunny.29 mph82%30.03 "Hg15 mi
4:00 PM46 °FPartly sunny.23 mph87%30.02 "Hg15 mi
3:00 PM50 °FPartly sunny.23 mph76%30.02 "Hg15 mi
2:00 PM48 °FPartly sunny.29 mph82%29.99 "Hg15 mi
1:00 PM48 °FPartly sunny.23 mph82%29.99 "Hg15 mi
12:00 PM46 °FPartly sunny.12 mph87%29.98 "Hg15 mi
11:00 AM45 °FLow clouds.23 mph87%29.97 "Hg15 mi
10:00 AM43 °FScattered showers. Overcast.17 mph87%29.97 "Hg15 mi
9:00 AM41 °FOvercast.17 mph93%29.96 "Hg15 mi
8:00 AM41 °FOvercast.12 mph87%29.94 "Hg15 mi
7:00 AM41 °FOvercast.12 mph87%29.94 "Hg15 mi
6:00 AM43 °FOvercast.12 mph87%29.93 "Hg15 mi
5:00 AM43 °FOvercast.12 mph87%29.91 "Hg15 mi
4:00 AM45 °FOvercast.12 mph87%29.90 "Hg15 mi
3:00 AM43 °FOvercast.17 mph93%29.89 "Hg15 mi
2:00 AM45 °FOvercast.12 mph87%29.88 "Hg15 mi
1:00 AM43 °FLight rain. Overcast.12 mph93%29.88 "Hg15 mi
12:00 AM43 °FLight rain. Overcast.17 mph93%29.87 "Hg15 mi
Weather by CustomWeather, © 2015

See weather overviewHow to use our weather pages